Погода в Самбурге

Россия / Ямало-Ненецкий автономный округ     67°00′12″N   78°13′25″E
темп.,
°C
ветер,
м/с
пор.,
м/с
влажн.,
%
обл.,
%
осадки,
мм/ч
давл.,
гПа
погр.,
м
9 декабря, чт
чт923:00−7з112192100 1.8 1005868
02:00−6зсз9149297 0.4 1005890
05:00−9зсз815835 0.4 1007495
08:00−11сз81590100 0.0 1009486
11:00−13сз71392100 0.1 1012521
14:00−18сз499757 0.0 1015133
17:00−21сз410995 0.0 1018125
20:00−24сз48985 0.0 102185
10 декабря, пт
пт1023:00−26ссз46975 0.0 102459
02:00−30сз2210026 0.0 10269
05:00−31св2210037 0.0 10279
08:00−31ю11100100 0.0 10289
11:00−31ююв3210074 0.0 102813
14:00−27юв369699 0.0 102762
17:00−23юв51091100 0.0 1026145
20:00−20вюв61388100 0.0 1023267
11 декабря, сб
сб1123:00−19вюв81696100 0.2 1019347
02:00−18вюв91796100 1.4 1016394
05:00−18вюв81596100 2.9 1014426
08:00−19в81396100 1.1 1013372
11:00−19в71297100 1.7 1013339
14:00−20всв61196100 0.4 1014373
17:00−20св61096100 0.6 1016363
20:00−20ссв61095100 0.1 1017330
12 декабря, вс
вс1223:00−23ссв599744 0.1 1019165
02:00−26ссв48975 0.0 1021101
05:00−28с469166 0.0 102265
08:00−26с3589100 0.0 102297
11:00−24с2489100 0.0 102380
14:00−24ссз2388100 0.0 102352
17:00−24с2388100 0.0 102346
20:00−27ссз229373 0.0 10239
13 декабря, пн
пн1323:00−27сз229869 0.0 102420
02:00−31ссз221005 0.0 10259
05:00−33ссз221006 0.0 10269
08:00−33ссз229916 0.0 10279
11:00−33сз119958 0.0 10279
14:00−30з1110095 0.0 10289
17:00−28юз2210096 0.1 102817
20:00−22юз2310094 0.1 102756